Regional Weather Roundup
Issued by NWS

Home | Current Version | Previous Version | Text Only | Print | Product List | Glossary On
Versions: 1 2 3 4 5 6 7 8 9 10 11 12 13 14 15 16 17 18 19 20 21 22 23 24 25 26 27 28 29 30 31 32 33 34 35 36 37 38 39 40 41 42 43 44 45 46 47 48 49 50
000
ASUS43 KTOP 040008
RWRKS

WEATHER ROUNDUP FOR KANSAS
NATIONAL WEATHER SERVICE GOODLAND KS
600 PM CST TUE MAR 03 2015

NOTE:  "FAIR" INDICATES FEW OR NO CLOUDS BELOW 12,000 FEET WITH NO
SIGNIFICANT WEATHER AND/OR OBSTRUCTIONS TO VISIBILITY.

KSZ001>006-013>018-027>032-041>047-040100-
NORTHWEST KANSAS

CITY           SKY/WX    TMP DP  RH WIND       PRES   REMARKS
GOODLAND       CLEAR     28  14  55 NE13      29.87R WCI  17
6HR MIN TEMP:  27; 6HR MAX TEMP:  32;

HAYS           CLOUDY    34  12  40 N18       29.92R WCI  23
HILL CITY      CLOUDY    33  12  41 NE13      29.94R WCI  24
6HR MIN TEMP:  33; 6HR MAX TEMP:  39;

RUSSELL        CLOUDY    34  16  47 N16G24    29.92R WCI  24
6HR MIN TEMP:  34; 6HR MAX TEMP:  44;

$$

KSZ061>065-074>080-084>089-040100-
SOUTHWEST KANSAS

CITY           SKY/WX    TMP DP  RH WIND       PRES   REMARKS
DODGE CITY     MOCLDY    36  23  59 NE16      29.87F WCI  26
6HR MIN TEMP:  36; 6HR MAX TEMP:  43;

ELKHART          N/A     34  27  76 NE13        N/A  WCI  25
GARDEN CITY    CLOUDY    34  21  59 NE18      29.86S WCI  23
6HR MIN TEMP:  34; 6HR MAX TEMP:  38;

GREAT BEND     CLOUDY    36  19  51 NE12      29.90F WCI  27
LIBERAL        CLOUDY    37  28  70 NE17      29.85R WCI  28
PRATT          CLOUDY    37  27  65 N15       29.89R WCI  28
$$

KSZ066>073-081>083-090>101-040100-
SOUTHEAST KANSAS

CITY           SKY/WX    TMP DP  RH WIND       PRES   REMARKS
CHANUTE        CLOUDY    44  36  73 NE9       29.86R
6HR MIN TEMP:  44; 6HR MAX TEMP:  50;

COFFEYVILLE    CLOUDY    48  40  73 NW5       29.86R
6HR MIN TEMP:  47; 6HR MAX TEMP:  54;

HUTCHINSON     CLOUDY    40  24  53 NE15G25   29.88S WCI  32
6HR MIN TEMP:  40; 6HR MAX TEMP:  48;

MEDICINE LODGE   N/A     43  29  57 N10       29.88R
NEWTON         CLOUDY    39  25  56 N20       29.89F WCI  30
PARSONS        LGT RAIN  46  42  86 CALM      29.88R
6HR MIN TEMP:  46; 6HR MAX TEMP:  52; 6HR PCP: TRACE;

WICHITA INTL   CLOUDY    43  28  55 N12       29.88R
6HR MIN TEMP:  43; 6HR MAX TEMP:  52;

WICHITA JABRA  CLOUDY    42  29  59 NE10      29.87R
6HR MIN TEMP:  42; 6HR MAX TEMP:  51;

WICHITA MCCONL CLOUDY    43  29  59 NE10      29.86S
WINFIELD       CLOUDY    44  34  67 N12       29.88R
6HR MIN TEMP:  44; 6HR MAX TEMP:  49;

$$

KSZ007>012-019>026-033>040-048>060-102>105-040100-
NORTHEAST KANSAS

CITY           SKY/WX    TMP DP  RH WIND       PRES   REMARKS
CONCORDIA      CLOUDY    32  16  51 N14       29.95R WCI  22
6HR MIN TEMP:  32; 6HR MAX TEMP:  43;

EMPORIA        CLOUDY    41  28  60 N7        29.89R
6HR MIN TEMP:  41; 6HR MAX TEMP:  49;

LAWRENCE       CLOUDY    40  27  59 N10       29.91R WCI  33
6HR MIN TEMP:  40; 6HR MAX TEMP:  48;

MANHATTAN      CLOUDY    37  21  52 N6        29.95R
6HR MIN TEMP:  37; 6HR MAX TEMP:  48;

MARYSVILLE     CLOUDY    32  19  59 N16       29.95R WCI  21
OLATHE IND     CLOUDY    38  29  70 N7        29.89F
6HR MIN TEMP:  38; 6HR MAX TEMP:  47;

OLATHE EXE     CLOUDY    40  28  62 N6        29.88R
6HR MIN TEMP:  40; 6HR MAX TEMP:  47;

SALINA         CLOUDY    38  19  46 NE17      29.92R WCI  28
6HR MIN TEMP:  38; 6HR MAX TEMP:  49;

TOPEKA BILLARD CLOUDY    38  26  62 N14       29.93R WCI  30
6HR MIN TEMP:  38; 6HR MAX TEMP:  46;

TOPEKA FORBES  CLOUDY    40  26  57 N15G23    29.90R WCI  32
6HR MIN TEMP:  40; 6HR MAX TEMP:  49;

$$



USA.gov is the U.S. government's official web portal to all federal, state and local government web resources and services.